STARLINK-1854 (47141 NORAD) Tracking and Keplerian Element Data

This shows tracking and keplerian element data for the satellite.

Feedback or suggestion? Click here.




ElementValue
Catalog47141
NameSTARLINK-1854
Epoch Orbit973
Epoch Day21.16668981
Epoch Year2021
RAAN72.8994
Inclination53.0555
Eccentricity0.000148
Argument of Perigee47.2111
Mean Anonmoly17.2328
Mean Motion15.62713919
Decay Rate0.00031807
L11 47141U 20088V 21021.16668981 .00031807 00000-0 35238-3 0 9999
L22 47141 53.0555 72.8994 0001480 47.2111 17.2328 15.62713919 9736

Live tracking and technical data element details for STARLINK-1854 (NORAD 47141). STARLINK-1854 can be tracked NOW for your location showing map with azimuth and elevation plus other details from your city location.

Track the satellite on the map from your city or location and see movement details for azimuth, elevation, latitude, longitude, range, height, and movement on the map or in text.







IsCatalogInMostPopularTable: catalog: 47141, numindb: 17
Update: records affected: 1



GetName: 47141 STARLINK-1854

Hit Count: updated at: Sat, 23 Jan 2021 17:24:53 GMT